• In Spain
  • List of Countries
  • For 7 days
  • Water Temperature
  • Satellite Maps
  • Weather Map
  • Weather Widgets
  • user-avatar
    Login

    Hourly Weather Mendoza

    Today, 26 February, Monday

    Time Temperature Precipitation Wind Pressure Humidity
    00:00 +25°C° 0 mm 2 mps 699 mmHg 55%
    01:00 +24°C° 0 mm 2 mps 699 mmHg 56%
    02:00 +24°C° 0 mm 2 mps 699 mmHg 58%
    03:00 +23°C° 0 mm 2 mps 699 mmHg 59%
    04:00 +23°C° 0 mm 1 mps 698 mmHg 61%
    05:00 +24°C° 0 mm 1 mps 699 mmHg 57%
    06:00 +24°C° 0 mm 2 mps 699 mmHg 54%
    07:00 +25°C° 0 mm 2 mps 699 mmHg 50%
    08:00 +26°C° 0 mm 2 mps 699 mmHg 46%
    09:00 +27°C° 0 mm 3 mps 699 mmHg 41%
    10:00 +29°C° 0 mm 3 mps 699 mmHg 37%
    11:00 +30°C° 0 mm 4 mps 698 mmHg 35%
    12:00 +32°C° 0 mm 4 mps 698 mmHg 33%
    13:00 +33°C° 0 mm 5 mps 698 mmHg 31%
    14:00 +33°C° 0.1 mm 4 mps 697 mmHg 30%
    15:00 +33°C° 0.1 mm 4 mps 697 mmHg 30%
    16:00 +33°C° 0.1 mm 4 mps 696 mmHg 30%
    17:00 +32°C° 0.2 mm 4 mps 697 mmHg 32%
    18:00 +30°C° 0.2 mm 3 mps 697 mmHg 35%
    19:00 +29°C° 0.2 mm 2 mps 697 mmHg 37%
    20:00 +28°C° 0.2 mm 2 mps 697 mmHg 40%
    21:00 +28°C° 0.2 mm 2 mps 698 mmHg 43%
    22:00 +27°C° 0.2 mm 1 mps 698 mmHg 45%
    23:00 +26°C° 0.3 mm 1 mps 698 mmHg 48%

    Tomorrow, 27 February, Tuesday

    Time Temperature Precipitation Wind Pressure Humidity
    00:00 +26°C° 0.3 mm 1 mps 697 mmHg 50%
    01:00 +25°C° 0.3 mm 1 mps 697 mmHg 53%
    02:00 +25°C° 0.2 mm 1 mps 697 mmHg 53%
    03:00 +25°C° 0.2 mm 1 mps 697 mmHg 52%
    04:00 +24°C° 0.2 mm 2 mps 696 mmHg 52%
    05:00 +24°C° 0.2 mm 2 mps 697 mmHg 51%
    06:00 +25°C° 0.2 mm 2 mps 697 mmHg 50%
    07:00 +25°C° 0.2 mm 2 mps 698 mmHg 48%
    08:00 +26°C° 0.1 mm 2 mps 698 mmHg 45%
    09:00 +28°C° 0.1 mm 3 mps 698 mmHg 42%
    10:00 +29°C° 0.1 mm 3 mps 698 mmHg 39%
    11:00 +29°C° 0.3 mm 3 mps 698 mmHg 38%
    12:00 +30°C° 0.3 mm 3 mps 698 mmHg 36%
    13:00 +31°C° 0.3 mm 3 mps 697 mmHg 35%
    14:00 +30°C° 0.4 mm 3 mps 697 mmHg 36%
    15:00 +30°C° 0.4 mm 3 mps 697 mmHg 38%
    16:00 +30°C° 0.4 mm 3 mps 696 mmHg 40%
    17:00 +28°C° 2.7 mm 5 mps 697 mmHg 48%
    18:00 +26°C° 2.7 mm 6 mps 697 mmHg 56%
    19:00 +24°C° 2.7 mm 7 mps 697 mmHg 64%
    20:00 +23°C° 2.9 mm 6 mps 697 mmHg 65%
    21:00 +22°C° 2.9 mm 6 mps 698 mmHg 66%
    22:00 +22°C° 2.9 mm 6 mps 699 mmHg 67%
    23:00 +22°C° 0.7 mm 5 mps 699 mmHg 67%

    Day after tomorrow, 28 February, Wednesday

    Time Temperature Precipitation Wind Pressure Humidity
    00:00 +21°C° 0.7 mm 5 mps 698 mmHg 67%
    01:00 +21°C° 0.7 mm 5 mps 698 mmHg 67%
    02:00 +21°C° 0.1 mm 4 mps 698 mmHg 67%
    03:00 +21°C° 0.1 mm 4 mps 698 mmHg 67%
    04:00 +21°C° 0.1 mm 3 mps 698 mmHg 66%
    05:00 +21°C° 0.1 mm 2 mps 698 mmHg 66%
    06:00 +21°C° 0.1 mm 2 mps 698 mmHg 66%
    07:00 +22°C° 0.1 mm 1 mps 698 mmHg 65%
    08:00 +23°C° 0.3 mm 2 mps 698 mmHg 64%
    09:00 +23°C° 0.3 mm 2 mps 699 mmHg 63%
    10:00 +24°C° 0.3 mm 2 mps 699 mmHg 62%
    11:00 +24°C° 0.4 mm 2 mps 698 mmHg 59%
    12:00 +25°C° 0.4 mm 2 mps 698 mmHg 56%
    13:00 +26°C° 0.4 mm 2 mps 698 mmHg 54%
    14:00 +26°C° 0.1 mm 2 mps 697 mmHg 52%
    15:00 +26°C° 0.1 mm 2 mps 697 mmHg 50%
    16:00 +26°C° 0.1 mm 2 mps 697 mmHg 48%
    17:00 +26°C° 0.2 mm 2 mps 698 mmHg 51%
    18:00 +25°C° 0.2 mm 2 mps 698 mmHg 53%
    19:00 +25°C° 0.2 mm 1 mps 698 mmHg 55%
    20:00 +25°C° 0 mm 1 mps 699 mmHg 56%
    21:00 +24°C° 0 mm 1 mps 699 mmHg 57%
    22:00 +24°C° 0 mm 1 mps 699 mmHg 58%
    23:00 +24°C° 0.1 mm 1 mps 699 mmHg 59%

    1 March, Thursday

    Time Temperature Precipitation Wind Pressure Humidity
    00:00 +21°C° 0.1 mm 0 mps 699 mmHg 61%
    01:00 +21°C° 0.1 mm 0 mps 698 mmHg 63%
    02:00 +23°C° 0.1 mm 1 mps 698 mmHg 61%
    03:00 +23°C° 0.1 mm 1 mps 698 mmHg 60%
    04:00 +23°C° 0.1 mm 1 mps 698 mmHg 59%
    05:00 +23°C° 0.1 mm 1 mps 699 mmHg 55%
    06:00 +24°C° 0.1 mm 2 mps 699 mmHg 51%
    07:00 +25°C° 0.1 mm 2 mps 700 mmHg 46%
    08:00 +26°C° 0.2 mm 2 mps 700 mmHg 43%
    09:00 +27°C° 0.2 mm 2 mps 700 mmHg 39%
    10:00 +28°C° 0.2 mm 1 mps 701 mmHg 35%
    11:00 +28°C° 0.1 mm 1 mps 700 mmHg 34%
    12:00 +29°C° 0.1 mm 2 mps 700 mmHg 33%
    13:00 +30°C° 0.1 mm 2 mps 700 mmHg 32%
    14:00 +30°C° 0.1 mm 2 mps 699 mmHg 32%
    15:00 +30°C° 0.1 mm 2 mps 699 mmHg 32%
    16:00 +30°C° 0.1 mm 2 mps 699 mmHg 31%
    17:00 +29°C° 0.1 mm 2 mps 699 mmHg 34%
    18:00 +29°C° 0.1 mm 2 mps 699 mmHg 36%
    19:00 +28°C° 0.1 mm 2 mps 700 mmHg 39%
    20:00 +27°C° 0.1 mm 1 mps 700 mmHg 42%
    21:00 +27°C° 0.1 mm 1 mps 700 mmHg 45%
    22:00 +26°C° 0.1 mm 1 mps 700 mmHg 48%
    23:00 +26°C° 0.1 mm 1 mps 700 mmHg 48%

    2 March, Friday

    Time Temperature Precipitation Wind Pressure Humidity
    00:00 +25°C° 0.1 mm 1 mps 700 mmHg 49%
    01:00 +25°C° 0.1 mm 1 mps 699 mmHg 49%
    02:00 +24°C° 0 mm 1 mps 699 mmHg 48%
    03:00 +24°C° 0 mm 2 mps 699 mmHg 48%
    04:00 +23°C° 0 mm 2 mps 699 mmHg 47%
    05:00 +24°C° 0 mm 1 mps 699 mmHg 44%
    06:00 +25°C° 0 mm 1 mps 700 mmHg 41%
    07:00 +26°C° 0 mm 1 mps 700 mmHg 38%
    08:00 +27°C° 0 mm 1 mps 700 mmHg 36%
    09:00 +28°C° 0 mm 1 mps 700 mmHg 34%
    10:00 +29°C° 0 mm 2 mps 700 mmHg 32%
    11:00 +30°C° 0 mm 2 mps 699 mmHg 31%
    12:00 +31°C° 0 mm 3 mps 699 mmHg 30%
    13:00 +33°C° 0 mm 3 mps 699 mmHg 29%
    14:00 +33°C° 0.1 mm 3 mps 698 mmHg 28%
    15:00 +33°C° 0.1 mm 3 mps 698 mmHg 28%
    16:00 +33°C° 0.1 mm 3 mps 698 mmHg 28%
    17:00 +31°C° 0.1 mm 2 mps 698 mmHg 30%
    18:00 +30°C° 0.1 mm 2 mps 698 mmHg 32%
    19:00 +29°C° 0.1 mm 2 mps 698 mmHg 34%
    20:00 +29°C° 0 mm 2 mps 698 mmHg 36%
    21:00 +28°C° 0 mm 1 mps 699 mmHg 37%
    22:00 +28°C° 0 mm 1 mps 699 mmHg 39%
    23:00 +27°C° 0 mm 1 mps 698 mmHg 41%

    3 March, Saturday

    Time Temperature Precipitation Wind Pressure Humidity
    00:00 +27°C° 0 mm 1 mps 698 mmHg 43%
    01:00 +26°C° 0 mm 1 mps 698 mmHg 45%
    02:00 +25°C° 0 mm 1 mps 697 mmHg 46%
    03:00 +25°C° 0 mm 1 mps 697 mmHg 46%
    04:00 +25°C° 0 mm 1 mps 697 mmHg 46%
    05:00 +25°C° 0 mm 1 mps 697 mmHg 43%
    06:00 +26°C° 0 mm 1 mps 698 mmHg 40%
    07:00 +27°C° 0 mm 1 mps 698 mmHg 37%
    08:00 +29°C° 0 mm 2 mps 698 mmHg 34%
    09:00 +30°C° 0 mm 3 mps 698 mmHg 32%
    10:00 +33°C° 0 mm 3 mps 698 mmHg 29%
    11:00 +33°C° 0 mm 4 mps 698 mmHg 28%
    12:00 +34°C° 0 mm 4 mps 697 mmHg 27%
    13:00 +35°C° 0 mm 4 mps 696 mmHg 26%
    14:00 +35°C° 0 mm 4 mps 696 mmHg 26%
    15:00 +35°C° 0 mm 4 mps 696 mmHg 26%
    16:00 +35°C° 0 mm 4 mps 695 mmHg 26%
    17:00 +34°C° 0 mm 3 mps 696 mmHg 29%
    18:00 +32°C° 0 mm 2 mps 696 mmHg 32%
    19:00 +30°C° 0 mm 2 mps 696 mmHg 35%
    20:00 +30°C° 0 mm 2 mps 696 mmHg 37%
    21:00 +29°C° 0 mm 2 mps 696 mmHg 39%
    22:00 +29°C° 0 mm 2 mps 696 mmHg 41%
    23:00 +28°C° 0.1 mm 2 mps 696 mmHg 42%
    Show more